[[{"header":{"parameterUnit":"m.s-1","parameterCategory":1,"la1":30.2991,"la2":30.254,"lo1":-89.0895,"lo2":-89.0444,"dy":0.0017,"dx":0.0017,"nx":28,"ny":28,"refTime":"2024-05-17T21:00:00:Z","depth":0,"parameterNumber":2,"parameterNumberName":"U-component_of_WINDS"},"data":[0,0,0,0,0,0,0,0,0,0,0,0,0,0,0,0,0,0,0,0,0,0,0,0,0,0,0,0,0,0,0,0,0,0,0,0,0,0,0,0,0,0,0,0,0,0,0,0,0,0,0,0,0,0,0,0,0,0,-5.3381,-5.3377,0,-5.3046,-5.3043,-5.3039,-5.2837,-5.2836,-5.2835,-5.2835,-5.2471,-5.2463,-5.2454,0,0,0,0,0,0,0,0,0,0,0,0,0,-5.3818,-5.3811,-5.3381,-5.3377,-5.3373,-5.3047,-5.3042,-5.3038,-5.2837,-5.2836,-5.2835,-5.2834,-5.2474,-5.2464,-5.2453,0,0,0,0,0,0,0,0,0,0,0,0,0,-5.357,-5.3809,-5.3382,-5.3234,-5.3217,-5.3048,-5.3042,-5.3037,-5.2838,-5.2836,-5.2835,-5.2834,-5.2478,-5.2465,-5.2452,-5.2397,0,0,-5.2411,-5.2406,0,0,0,0,0,0,0,0,-5.3584,-5.3554,-5.326,-5.3244,-5.3225,-5.2983,-5.3063,-5.2821,-5.2838,-5.2981,-5.2834,-5.2833,-5.2641,-5.2614,-5.2554,-5.238,-5.2365,-5.241,-5.2402,-5.2396,-5.2393,0,0,0,0,0,0,0,-5.3602,-5.3567,-5.3248,-5.3256,-5.3234,-5.3175,-5.3138,-5.3016,-5.2822,-5.2969,-5.2953,-5.2917,-5.2631,-5.2567,-5.2544,-5.2359,-5.2411,-5.2399,-5.2391,-5.2385,-5.2106,-5.2107,0,0,0,0,0,0,-5.3646,-5.3583,-5.3259,-5.3238,-5.3406,-5.3168,-5.3127,-5.3061,-5.2823,-5.2786,-5.2919,-5.2909,-5.2591,-5.256,-5.253,-5.2442,-5.2397,-5.2384,-5.2377,-5.2106,-5.2106,-5.2107,0,0,0,0,0,0,-5.3656,-5.3619,-5.3272,-5.3406,-5.3358,-5.3162,-5.309,-5.3056,-5.2992,-5.2786,-5.2748,-5.2892,-5.2588,-5.2549,-5.243,-5.2427,-5.2378,-5.2366,-5.2105,-5.2106,-5.2107,-5.2271,0,0,0,0,0,0,-5.367,-5.3624,-5.3609,-5.3408,-5.3351,-5.3187,-5.309,-5.305,-5.2972,-5.2956,-5.275,-5.2714,-5.2584,-5.2451,-5.2417,-5.2408,-5.2356,-5.2104,-5.2105,-5.2106,-5.2265,-5.2277,-5.2288,0,0,0,0,0,-5.3686,-5.3667,-5.361,-5.3572,-5.333,-5.3188,-5.3154,-5.3012,-5.2973,-5.295,-5.2815,-5.2721,-5.2433,-5.244,-5.24,-5.2387,-5.2104,-5.2105,-5.2106,-5.226,-5.2275,-5.2288,0,0,0,0,0,0,-5.3869,-5.3639,-5.3572,-5.349,-5.336,-5.3155,-5.3123,-5.3034,-5.2908,-5.2898,-5.2718,-5.2673,-5.2569,-5.2465,-5.2478,-5.2313,-5.2256,-5.225,-5.2387,-5.2399,-5.2411,-5.2437,-5.2345,0,0,0,0,0,-5.3901,-5.3813,-5.3612,-5.3558,-5.3497,-5.3322,-5.3254,-5.3155,-5.301,-5.2953,-5.281,-5.2667,-5.2542,-5.2465,-5.234,-5.2247,-5.2192,-5.2217,-5.2228,-5.2239,-5.2235,-5.2165,-5.217,-5.2111,-5.2111,-5.2111,0,0,-5.3964,-5.3827,-5.3782,-5.3591,-5.348,-5.3382,-5.3277,-5.3182,-5.3104,-5.2936,-5.2815,-5.2704,-5.253,-5.2422,-5.2367,-5.2332,-5.2238,-5.224,-5.2251,-5.224,-5.2167,-5.2173,-5.2178,-5.2112,-5.2111,-5.2111,0,0,-5.4029,-5.3921,-5.3859,-5.3748,-5.3581,-5.3462,-5.3447,-5.3252,-5.3173,-5.305,-5.2918,-5.2817,-5.2611,-5.2489,-5.2401,-5.2406,-5.2309,-5.2369,-5.2429,-5.2363,-5.2368,-5.2371,-5.2365,-5.2366,-5.2366,-5.2366,-5.2366,0,-5.4127,-5.3985,-5.3837,-5.3747,-5.3662,-5.3508,-5.3437,-5.3333,-5.3132,-5.3071,-5.3036,-5.2765,-5.2639,-5.2494,-5.2494,-5.243,-5.2398,-5.2393,-5.2381,-5.2382,-5.2383,-5.2374,-5.2373,-5.2374,-5.2373,-5.2372,-5.2371,0,-5.4109,-5.401,-5.3979,-5.3792,-5.3702,-5.3623,-5.3452,-5.3377,-5.3281,-5.3162,-5.3029,-5.287,-5.2706,-5.2663,-5.2569,-5.25,-5.2482,-5.2417,-5.2356,-5.2399,-5.2388,-5.2384,-5.2385,-5.2383,-5.238,-5.2378,0,0,-5.4287,-5.4014,-5.4004,-5.3912,-5.3711,-5.3627,-5.3532,-5.3376,-5.3311,-5.3172,-5.3082,-5.2904,-5.2838,-5.2738,-5.2625,-5.2568,-5.257,-5.2506,-5.2499,-5.2519,-5.2472,-5.2522,-5.2522,-5.2504,-5.2503,-5.2502,-5.2484,0,-5.4319,-5.4154,-5.4012,-5.3894,-5.3794,-5.364,-5.3556,-5.3417,-5.33,-5.3189,-5.3055,-5.293,-5.2858,-5.2794,-5.273,-5.2585,-5.2558,-5.2584,-5.2408,-5.2404,-5.2456,-5.2517,-5.2571,-5.2563,-5.248,-5.2479,-5.2478,0,-5.4337,-5.4208,-5.4083,-5.3881,-5.3833,-5.3763,-5.3601,-5.3501,-5.3333,-5.3251,-5.3134,-5.3015,-5.2895,-5.2844,-5.2669,-5.269,-5.2607,-5.2522,-5.2518,-5.2495,-5.2444,-5.249,-5.2558,-5.2556,-5.2471,-5.2472,-5.2472,0,-5.4472,-5.4266,-5.4161,-5.4088,-5.3853,-5.3804,-5.3702,-5.3534,-5.3445,-5.3299,-5.3237,-5.3078,-5.2989,-5.2862,-5.2698,-5.2678,-5.2536,-5.2474,-5.2454,-5.2458,-5.2433,-5.2436,-5.2485,-5.2385,-5.2385,-5.2385,-5.2385,0,-5.4521,-5.4448,-5.4218,-5.4154,-5.4062,-5.3894,-5.3804,-5.3686,-5.3536,-5.3437,-5.329,-5.3197,-5.2988,-5.2866,-5.2735,-5.2603,-5.2565,-5.2487,-5.2452,-5.2499,-5.2508,-5.2442,-5.2437,-5.2385,-5.2385,-5.2385,-5.2385,0,-5.4658,-5.4503,-5.4377,-5.4163,-5.4106,-5.4048,-5.3858,-5.3782,-5.3654,-5.3529,-5.3489,-5.3285,-5.3132,-5.2956,-5.2744,-5.2654,-5.2531,-5.2483,-5.2591,-5.257,-5.2559,-5.2561,-5.2564,-5.2551,-5.2466,-5.2467,-5.2468,0,-5.47,-5.464,-5.4419,-5.4345,-5.4249,-5.4132,-5.404,-5.3865,-5.3773,-5.3572,-5.3517,-5.3355,-5.3216,-5.2976,-5.2801,-5.2634,-5.2578,-5.259,-5.2552,-5.2596,-5.257,-5.2575,-5.2563,-5.2601,-5.2603,-5.2604,-5.2606,0,-5.4787,-5.471,-5.4589,-5.4437,-5.4332,-5.4202,-5.4065,-5.401,-5.3804,-5.3706,-5.3552,-5.3444,-5.3226,-5.3062,-5.2872,-5.2752,-5.264,-5.2618,-5.2604,-5.265,-5.2713,-5.2672,-5.2616,-5.262,-5.2618,-5.2617,-5.2616,-5.2616,-5.4872,-5.4809,-5.4642,-5.4507,-5.4385,-5.4258,-5.4175,-5.4035,-5.3906,-5.3721,-5.3622,-5.3466,-5.3283,-5.3018,-5.29,-5.2767,-5.273,-5.2711,-5.2705,-5.2703,-5.2713,-5.2736,-5.2731,-5.2731,-5.273,-5.273,-5.2729,0,-5.4947,-5.483,-5.4709,-5.4522,-5.4413,-5.4324,-5.4163,-5.4074,-5.3942,-5.3786,-5.3652,-5.3466,-5.3303,-5.3113,-5.2934,-5.2862,-5.2805,-5.282,-5.2822,-5.2794,-5.276,-5.2788,-5.2869,-5.2869,-5.2869,-5.2869,-5.2869,-5.2869,-5.4973,-5.4859,-5.476,-5.4578,-5.4457,-5.4311,-5.4225,-5.4101,-5.3975,-5.3778,-5.3645,-5.3524,-5.3348,-5.3153,-5.2994,-5.294,-5.2878,-5.2908,-5.2839,-5.281,-5.2798,-5.2787,-5.2812,-5.2897,-5.2897,-5.2883,-5.2883,-5.2883]},{"header":{"parameterUnit":"m.s-1","parameterCategory":1,"la1":30.2991,"la2":30.254,"lo1":-89.0895,"lo2":-89.0444,"dy":0.0017,"dx":0.0017,"nx":28,"ny":28,"refTime":"2024-05-17T21:00:00:Z","depth":0,"parameterNumber":3,"parameterNumberName":"V-component_of_WINDS"},"data":[0,0,0,0,0,0,0,0,0,0,0,0,0,0,0,0,0,0,0,0,0,0,0,0,0,0,0,0,0,0,0,0,0,0,0,0,0,0,0,0,0,0,0,0,0,0,0,0,0,0,0,0,0,0,0,0,0,0,0.6316,0.6312,0,0.5923,0.5918,0.5914,0.586,0.5864,0.5868,0.5871,0.5441,0.5426,0.5411,0,0,0,0,0,0,0,0,0,0,0,0,0,0.699,0.6978,0.6316,0.6312,0.6307,0.5923,0.5918,0.5912,0.586,0.5864,0.5869,0.5873,0.5446,0.5428,0.541,0,0,0,0,0,0,0,0,0,0,0,0,0,0.6657,0.6974,0.6317,0.6235,0.6224,0.5924,0.5918,0.5911,0.5859,0.5864,0.587,0.5875,0.5452,0.543,0.5408,0.5155,0,0,0.5339,0.5329,0,0,0,0,0,0,0,0,0.6676,0.6632,0.6252,0.624,0.6227,0.5947,0.5998,0.5656,0.5857,0.5996,0.5872,0.5878,0.5603,0.5568,0.5481,0.5135,0.5116,0.5337,0.5323,0.5313,0.5307,0,0,0,0,0,0,0,0.6699,0.6648,0.616,0.6246,0.6231,0.6207,0.6166,0.5933,0.5771,0.5985,0.598,0.5936,0.5597,0.5503,0.547,0.511,0.5337,0.5317,0.5304,0.5295,0.4522,0.4516,0,0,0,0,0,0,0.6741,0.6668,0.6172,0.6148,0.6471,0.619,0.6144,0.603,0.5774,0.5741,0.5931,0.5935,0.5538,0.5497,0.5455,0.5134,0.5314,0.5293,0.528,0.4529,0.4521,0.4513,0,0,0,0,0,0,0.6756,0.6698,0.6188,0.6407,0.634,0.6173,0.6045,0.602,0.5926,0.5734,0.5702,0.5867,0.5541,0.5487,0.5229,0.5119,0.5282,0.5262,0.4538,0.4527,0.4517,0.4496,0,0,0,0,0,0,0.6776,0.6703,0.6614,0.6405,0.6329,0.5979,0.6039,0.6008,0.5891,0.5892,0.5665,0.5633,0.5542,0.5263,0.5207,0.5091,0.5244,0.4547,0.4533,0.452,0.4506,0.4486,0.4469,0,0,0,0,0,0.68,0.662,0.661,0.655,0.6215,0.5973,0.5928,0.5835,0.5883,0.5785,0.566,0.564,0.5141,0.5237,0.5173,0.5049,0.4553,0.4537,0.4521,0.4514,0.449,0.447,0,0,0,0,0,0,0.6812,0.6592,0.6578,0.6328,0.617,0.5965,0.584,0.5814,0.5633,0.564,0.5523,0.5471,0.5217,0.5107,0.5218,0.4784,0.485,0.482,0.4866,0.4841,0.4824,0.4852,0.5226,0,0,0,0,0,0.6788,0.662,0.6432,0.6228,0.615,0.6009,0.59,0.5842,0.567,0.5601,0.5457,0.5283,0.5085,0.4958,0.4767,0.449,0.4433,0.4372,0.4354,0.434,0.4314,0.4147,0.4114,0.4461,0.4462,0.4462,0,0,0.6731,0.659,0.649,0.6227,0.6098,0.5915,0.5953,0.576,0.5619,0.5568,0.5317,0.5204,0.5001,0.4731,0.4604,0.4631,0.4205,0.432,0.431,0.4291,0.4127,0.4095,0.4065,0.4451,0.4453,0.4454,0,0,0.6535,0.6416,0.6229,0.61,0.5907,0.5813,0.5768,0.5564,0.549,0.5238,0.5193,0.5018,0.4684,0.4538,0.4421,0.4161,0.413,0.4101,0.4003,0.3842,0.3815,0.379,0.3687,0.3653,0.4077,0.4076,0.4076,0,0.6487,0.622,0.6134,0.5941,0.5821,0.5775,0.5576,0.5452,0.5202,0.5115,0.5152,0.4726,0.4586,0.4276,0.4212,0.4122,0.4056,0.4124,0.3828,0.3802,0.3777,0.3677,0.364,0.4074,0.4074,0.4074,0.4074,0,0.6165,0.5979,0.585,0.5617,0.5483,0.5288,0.5162,0.5034,0.4985,0.4883,0.4618,0.445,0.4219,0.4141,0.409,0.3819,0.384,0.3854,0.3916,0.3742,0.3646,0.3608,0.4069,0.407,0.4071,0.4072,0,0,0.5966,0.5688,0.564,0.553,0.531,0.5159,0.4956,0.4739,0.4626,0.4453,0.4272,0.3988,0.3996,0.3862,0.3793,0.3653,0.3444,0.3681,0.3673,0.3635,0.3121,0.3108,0.3066,0.3426,0.3418,0.3412,0.3135,0,0.5738,0.5388,0.5301,0.4996,0.4815,0.4764,0.4586,0.4425,0.4322,0.4145,0.4028,0.3825,0.3858,0.3775,0.3634,0.35,0.3338,0.352,0.3243,0.3234,0.329,0.3017,0.3004,0.2751,0.3098,0.3092,0.3087,0,0.5427,0.5253,0.4933,0.4729,0.465,0.4493,0.428,0.4117,0.3927,0.3861,0.3709,0.3652,0.3425,0.3503,0.3182,0.3307,0.3187,0.3103,0.309,0.3055,0.3146,0.2966,0.267,0.2628,0.3029,0.3033,0.3038,0,0.5303,0.4989,0.4754,0.4662,0.4421,0.4309,0.4201,0.402,0.3891,0.3701,0.3613,0.3398,0.3277,0.3105,0.2985,0.3056,0.2669,0.274,0.2597,0.2599,0.2513,0.2519,0.2185,0.245,0.245,0.2451,0.2452,0,0.5054,0.4857,0.4694,0.4549,0.4322,0.4219,0.3993,0.3882,0.3719,0.3542,0.3482,0.3314,0.3171,0.2979,0.2883,0.2625,0.2572,0.2503,0.2478,0.2504,0.2512,0.2419,0.2431,0.2441,0.2443,0.2445,0.2447,0,0.4876,0.4762,0.45,0.4294,0.4236,0.4077,0.3894,0.3743,0.3639,0.3414,0.3354,0.3185,0.2956,0.2822,0.2531,0.2466,0.2176,0.2163,0.2242,0.2229,0.209,0.2102,0.1679,0.1613,0.193,0.1927,0.1925,0,0.4722,0.457,0.4347,0.4229,0.4121,0.393,0.3799,0.3687,0.3551,0.332,0.3194,0.2964,0.2773,0.2406,0.225,0.2023,0.1998,0.1866,0.1963,0.1991,0.1984,0.1992,0.197,0.1847,0.1844,0.1842,0.184,0,0.4456,0.4406,0.4225,0.4021,0.3868,0.3699,0.3531,0.3434,0.3291,0.3138,0.2908,0.2761,0.2464,0.223,0.199,0.1865,0.1822,0.1812,0.1764,0.1785,0.1834,0.1796,0.2188,0.182,0.1822,0.1824,0.1825,0.1826,0.4279,0.4138,0.3958,0.3754,0.3617,0.346,0.3306,0.3183,0.2992,0.2748,0.2691,0.2445,0.2246,0.1921,0.179,0.1587,0.1607,0.1542,0.1524,0.1507,0.1498,0.1874,0.1543,0.1544,0.1544,0.1544,0.1544,0,0.4002,0.3884,0.3699,0.3467,0.3303,0.329,0.31,0.296,0.2748,0.2572,0.2386,0.2114,0.1885,0.171,0.1472,0.1342,0.1315,0.1282,0.1286,0.1255,0.1498,0.1559,0.1307,0.1307,0.1307,0.1307,0.1307,0.1307,0.3839,0.3597,0.3523,0.3206,0.3086,0.2852,0.2743,0.2591,0.245,0.2152,0.1965,0.1856,0.1674,0.1422,0.1207,0.116,0.1069,0.1038,0.0986,0.1214,0.124,0.1264,0.132,0.1022,0.1021,0.0758,0.0756,0.0754]}]]